Wellsville, NY

5:58 PM EST on November 17, 2019 (GMT -0500)
Wellsville Municipal-Tarantine

Weather History for KELZ - October, 2019

Change the Weather History Date:

Wednesday, October 23, 2019

  Actual Average (WUND) Record (WUND)
Temperature  
Mean Temperature 46 °F -  
Max Temperature 52 °F - - (-1)
Min Temperature 39 °F - - (-1)
Degree Days  
Heating Degree Days 20    
Moisture  
Dew Point 33 °F    
Average Humidity 62    
Maximum Humidity 86    
Minimum Humidity 39    
Precipitation  
Precipitation 0.00 in - - ()
Sea Level Pressure  
Sea Level Pressure 29.99 in    
Wind  
Wind Speed 7 mph ()    
Max Wind Speed 18 mph    
Max Gust Speed 25 mph    
Visibility 10.0 miles    
Events      
Averages and records for this station are not official NWS values.
T = Trace of Precipitation, MM = Missing Value Source: Averaged Metar Reports

Daily Weather History Graph

Daily Weather History Graph

Search for Another Location

Airport or City:

Astronomy

Oct. 23, 2019 Rise Set
Actual Time 7:33 AM EDT 6:18 PM EDT
Civil Twilight 7:05 AM EDT 6:46 PM EDT
Nautical Twilight 6:32 AM EDT 7:19 PM EDT
Astronomical Twilight 6:00 AM EDT 7:51 PM EDT
Moon 1:42 AM EDT (10/23) 4:14 PM EDT (10/23)
Length of Visible Light 11h 41m
Length of Day
10h 44m
Waning Crescent, 27% of the Moon is Illuminated
Oct 23
Waning Crescent
Oct 27
New
Nov 4
First Quarter
Nov 12
Full
Nov 19
Last Quarter

Hourly Weather History & Observations

Time (EDT) Temp. Windchill Dew Point Humidity Pressure Visibility Wind Dir Wind Speed Gust Speed Precip Events Conditions
12:33 AM 48.0 °F - 44.1 °F 86% 29.84 in 10.0 mi West 6.9 mph - N/A   Overcast
12:56 AM 46.9 °F - 42.1 °F 83% 29.86 in 10.0 mi West 5.8 mph - N/A   Partly Cloudy
1:56 AM 46.9 °F - 39.9 °F 77% 29.85 in 10.0 mi WSW 5.8 mph - N/A   Scattered Clouds
2:56 AM 45.0 °F 43.5 °F 37.9 °F 76% 29.86 in 10.0 mi WSW 3.5 mph - N/A   Clear
3:56 AM 44.1 °F 41.5 °F 37.0 °F 76% 29.87 in 10.0 mi SW 4.6 mph - N/A   Clear
4:56 AM 42.1 °F 38.4 °F 37.0 °F 82% 29.89 in 10.0 mi SW 5.8 mph - N/A   Clear
5:56 AM 41.0 °F 37.1 °F 36.0 °F 82% 29.90 in 10.0 mi WSW 5.8 mph - N/A   Clear
6:56 AM 39.9 °F 35.1 °F 36.0 °F 86% 29.93 in 10.0 mi WSW 6.9 mph - N/A   Clear
7:56 AM 39.9 °F 35.1 °F 36.0 °F 86% 29.94 in 10.0 mi SW 6.9 mph - N/A   Clear
8:56 AM 43.0 °F 38.2 °F 37.0 °F 80% 29.95 in 10.0 mi SW 8.1 mph - N/A   Clear
9:56 AM 45.0 °F 39.3 °F 37.0 °F 74% 29.96 in 10.0 mi SW 11.5 mph 19.6 mph N/A   Clear
10:56 AM 46.9 °F - 37.0 °F 68% 29.96 in 10.0 mi WSW 11.5 mph 25.3 mph N/A   Clear
11:56 AM 50.0 °F - 34.0 °F 54% 29.97 in 10.0 mi SW 13.8 mph 25.3 mph N/A   Mostly Cloudy
12:56 PM 51.1 °F - 32.0 °F 48% 29.99 in 10.0 mi WNW 18.4 mph 25.3 mph N/A   Scattered Clouds
1:56 PM 51.1 °F - 30.0 °F 44% 29.99 in 10.0 mi West 13.8 mph 24.2 mph N/A   Scattered Clouds
2:56 PM 51.1 °F - 27.0 °F 39% 30.00 in 10.0 mi West 17.3 mph 25.3 mph N/A   Clear
3:56 PM 52.0 °F - 28.0 °F 40% 30.04 in 10.0 mi West 13.8 mph 23.0 mph N/A   Partly Cloudy
4:56 PM 50.0 °F - 27.0 °F 41% 30.06 in 10.0 mi West 16.1 mph 23.0 mph N/A   Clear
5:56 PM 48.0 °F - 24.1 °F 39% 30.09 in 10.0 mi West 11.5 mph 19.6 mph N/A   Clear
6:56 PM 46.0 °F 42.5 °F 25.0 °F 44% 30.12 in 10.0 mi WSW 6.9 mph - N/A   Clear
7:56 PM 45.0 °F 40.6 °F 25.0 °F 46% 30.13 in 10.0 mi SW 8.1 mph - N/A   Clear
8:56 PM 44.1 °F 40.1 °F 26.1 °F 49% 30.14 in 10.0 mi SW 6.9 mph - N/A   Clear
9:56 PM 44.1 °F 40.1 °F 27.0 °F 51% 30.15 in 10.0 mi WSW 6.9 mph - N/A   Clear
10:56 PM 44.1 °F 41.5 °F 27.0 °F 51% 30.16 in 10.0 mi SW 4.6 mph - N/A   Clear
11:56 PM 43.0 °F 38.2 °F 28.9 °F 58% 30.16 in 10.0 mi SW 8.1 mph - N/A   Clear